Content
SEND FEEDBACK

Daily
Averages
Monthly
Summary
United States of America

PINEVILLE, LOUISIANA


Home > North America > United States > Louisiana
Elevation: 89 feet     Latitude: 31 19N     Longitude: 092 33W

WEATHER
 
SELECT A DAY
Number of Records: 196,582;   Date Range: 3/15/95 - 7/23/14
 
SHARE

PRINT THIS DATA

[ ← Previous Day ]
WEATHER ALMANAC - FEBRUARY 5, 2013
[ Next Day → ]
[ °C ]   °F
Weather ElementAverageHighLow
Temperature55.9 °F64.9 °F (2:53 pm)48.9 °F (11:53 pm)
Dewpoint54.1 °F59 °F (3:41 pm)48.9 °F (11:53 pm)
Humidity94.2 %100 % (7:53 am)77 % (3:09 pm)
Barometer30.00 in30.06 in (10:53 pm)29.92 in (2:53 am)
Wind Speed1.8 mph5.8 mph (7:28 am)
Weather ElementAverage
Visibility4.3 mi
Wind DirectionNE (41.4 °)

Weather ElementTotal
Precipitation0.04 in
Heating Degree Days8.1 (Base 65)
Growing Degree Days6.9 (Base 50)
Averaged from 49 records on February 5, 2013
WEATHER CONDITIONS BREAKOUT
WIND DIRECTION BREAKOUT
WEATHER BY HOUR - FEBRUARY 5, 2013
[ °C ]   °F
Local TimeTemperatureDewpointHumidityBarometerVisibilityWind DirectionWind SpeedGust SpeedPrecipitationEventsConditions
12:53 AM53.1 °F51.1 °F93 %29.94 in9.0 miCalmOvercast
1:53 AM54.0 °F51.1 °F90 %29.94 in10.0 miESE (110°)3.5 mphOvercast
2:53 AM53.1 °F51.1 °F93 %29.92 in9.0 miSSE (160°)3.5 mphMostly Cloudy
3:53 AM54.0 °F52.0 °F93 %29.93 in8.0 miCalmOvercast
4:53 AM54.0 °F52.0 °F93 %29.94 in7.0 miESE (120°)3.5 mph0.00 inOvercast
5:53 AM54.0 °F53.1 °F97 %29.95 in4.0 miSE (140°)4.6 mphOvercast
6:53 AM55.0 °F54.0 °F96 %29.96 in3.0 miEast (90°)3.5 mphOvercast
7:28 AM55.4 °F53.6 °F94 %29.95 in2.0 miESE (120°)5.8 mphOvercast
7:44 AM55.4 °F53.6 °F94 %29.96 in1.5 miESE (120°)5.8 mphOvercast
7:53 AM55.0 °F55.0 °F100 %29.98 in1.5 miESE (110°)4.6 mphOvercast
8:23 AM55.4 °F55.4 °F100 %29.97 in0.5 miCalmFogFog
8:39 AM55.4 °F55.4 °F100 %29.98 in0.2 miCalmFogFog
8:53 AM55.9 °F55.0 °F97 %30.00 in0.2 miCalmFogFog
9:45 AM55.4 °F55.4 °F100 %30.01 in1.0 miNorth (10°)4.6 mphMist
9:53 AM55.9 °F55.9 °F100 %30.03 in0.8 miNorth (10°)3.5 mphOvercast
10:37 AM57.2 °F57.2 °F100 %30.02 in2.0 miCalmOvercast
10:51 AM57.2 °F57.2 °F100 %30.03 in3.0 miCalmOvercast
10:53 AM57.9 °F57.0 °F97 %30.04 in3.0 miCalmOvercast
11:53 AM59.0 °F57.0 °F93 %30.03 in6.0 miCalmOvercast
12:53 PM60.1 °F57.9 °F93 %30.02 in6.0 miCalmOvercast
1:35 PM60.8 °F57.2 °F88 %29.99 in6.0 miCalmOvercast
1:53 PM62.1 °F57.9 °F86 %30.00 in7.0 miEast (80°)3.5 mphOvercast
2:26 PM62.6 °F57.2 °F82 %29.98 in8.0 miEast (80°)5.8 mphOvercast
2:53 PM64.9 °F57.9 °F78 %29.99 in9.0 miCalmMostly Cloudy
3:09 PM64.4 °F57.2 °F77 %29.98 in9.0 miESE (120°)3.5 mphScattered Clouds
3:41 PM64.4 °F59.0 °F83 %29.97 in9.0 miSE (140°)5.8 mphMostly Cloudy
3:53 PM64.9 °F59.0 °F81 %29.99 in8.0 miSE (140°)5.8 mphOvercast
4:42 PM64.4 °F57.2 °F77 %29.96 in8.0 miESE (110°)5.8 mphClear
4:53 PM64.9 °F57.9 °F78 %29.98 in8.0 miEast (90°)4.6 mphPartly Cloudy
5:53 PM60.1 °F57.0 °F90 %29.98 in7.0 miESE (110°)4.6 mphClear
6:53 PM57.0 °F55.0 °F93 %30.00 in7.0 miESE (110°)3.5 mphClear
7:53 PM55.9 °F55.0 °F97 %30.02 in6.0 miCalmClear
8:39 PM53.6 °F53.6 °F100 %30.02 in1.8 miCalm0.01 inClear
8:47 PM53.6 °F53.6 °F100 %30.02 in3.0 miCalm0.01 inClear
8:50 PM53.6 °F51.8 °F94 %30.02 in1.5 miCalm0.01 inClear
8:53 PM53.1 °F52.0 °F96 %30.04 in1.2 miCalm0.01 inClear
9:11 PM53.6 °F53.6 °F100 %30.03 in6.0 miCalmPartly Cloudy
9:53 PM52.0 °F51.1 °F97 %30.04 in6.0 miENE (60°)3.5 mphClear
10:40 PM51.8 °F51.8 °F100 %30.04 in3.0 miCalmScattered Clouds
10:43 PM51.8 °F51.8 °F100 %30.04 in3.0 miCalmMostly Cloudy
10:53 PM52.0 °F52.0 °F100 %30.06 in3.0 miCalmMostly Cloudy
10:56 PM51.8 °F51.8 °F100 %30.04 in0.2 miCalmFogFog
10:59 PM51.8 °F51.8 °F100 %30.04 in0.5 miCalmFogFog
11:07 PM50.0 °F50.0 °F100 %30.04 in2.0 miCalmMostly Cloudy
11:13 PM51.8 °F50.0 °F94 %30.04 in3.0 miCalmScattered Clouds
11:18 PM51.8 °F51.8 °F100 %30.04 in1.8 miCalmScattered Clouds
11:22 PM50.0 °F50.0 °F100 %30.04 in0.8 miCalmMist
11:36 PM50.0 °F50.0 °F100 %30.04 in1.2 miCalmScattered Clouds
11:53 PM48.9 °F48.9 °F100 %30.05 in0.8 miCalmMist
Hourly data recorded from KAEX, located miles away from Pineville, Louisiana







STORIES FROM OUR PARTNERS